Location: Clanezzo
(45.7500°N, 9.6000°E)
Time: 01:16:41
(UTC+00:00)

CZ-4C R/B - Pass Details

Date: 12 May 2021
Orbit: 609 x 1393 km, 63.4° (Epoch: 23 June)

Event Time Altitude Azimuth Distance (km) Brightness Sun altitude
Rises 21:02:00 0° 317° (NW) 3,894 7.3 -18.9°
Reaches altitude 10° 21:04:36 10° 312° (NW) 3,039 6.2 -19.1°
Maximum altitude 21:11:40 48° 241° (WSW) 1,617 3.6 -19.8°
Enters shadow 21:16:27 24° 182° (S) 2,458 4.1 -20.2°
